Year,Month,Day,Hour,Minute,Value (Times are PST for temperature in C)
2016,08,15,00,00,15.30
2016,08,15,00,01,15.30
2016,08,15,00,02,15.30
2016,08,15,00,03,15.30
2016,08,15,00,04,15.30
2016,08,15,00,05,15.30
2016,08,15,00,06,15.30
2016,08,15,00,07,15.30
2016,08,15,00,08,15.30
2016,08,15,00,09,15.30
2016,08,15,00,10,15.30
2016,08,15,00,11,15.30
2016,08,15,00,12,15.30
2016,08,15,00,13,15.30
2016,08,15,00,14,15.30
2016,08,15,00,15,15.20
2016,08,15,00,16,15.20
2016,08,15,00,17,15.20
2016,08,15,00,18,15.20
2016,08,15,00,19,15.20
2016,08,15,00,20,15.20
2016,08,15,00,21,15.20
2016,08,15,00,22,15.20
2016,08,15,00,23,15.10
2016,08,15,00,24,15.10
2016,08,15,00,25,15.10
2016,08,15,00,26,15.10
2016,08,15,00,27,15.20
2016,08,15,00,28,15.20
2016,08,15,00,29,15.20
2016,08,15,00,30,15.20
2016,08,15,00,31,15.20
2016,08,15,00,32,15.20
2016,08,15,00,33,15.10
2016,08,15,00,34,15.10
2016,08,15,00,35,15.10
2016,08,15,00,36,15.10
2016,08,15,00,37,15.10
2016,08,15,00,38,15.10
2016,08,15,00,39,15.00
2016,08,15,00,40,15.00
2016,08,15,00,41,15.00
2016,08,15,00,42,15.00
2016,08,15,00,43,15.00
2016,08,15,00,44,15.00
2016,08,15,00,45,15.00
2016,08,15,00,46,15.00
2016,08,15,00,47,15.00
2016,08,15,00,48,15.00
2016,08,15,00,49,15.00
2016,08,15,00,50,15.10
2016,08,15,00,51,15.10
2016,08,15,00,52,15.10
2016,08,15,00,53,15.10
2016,08,15,00,54,15.20
2016,08,15,00,55,15.20
2016,08,15,00,56,15.20
2016,08,15,00,57,15.20
2016,08,15,00,58,15.20
2016,08,15,00,59,15.20
2016,08,15,01,00,15.20
2016,08,15,01,01,15.10
2016,08,15,01,02,15.10
2016,08,15,01,03,15.10
2016,08,15,01,04,15.10
2016,08,15,01,05,15.10
2016,08,15,01,06,15.00
2016,08,15,01,07,15.00
2016,08,15,01,08,15.00
2016,08,15,01,09,15.00
2016,08,15,01,10,14.90
2016,08,15,01,11,14.90
2016,08,15,01,12,14.90
2016,08,15,01,13,14.90
2016,08,15,01,14,14.90
2016,08,15,01,15,14.90
2016,08,15,01,16,14.90
2016,08,15,01,17,14.90
2016,08,15,01,18,14.80
2016,08,15,01,19,14.80
2016,08,15,01,20,14.80
2016,08,15,01,21,14.80
2016,08,15,01,22,14.80
2016,08,15,01,23,14.80
2016,08,15,01,24,14.80
2016,08,15,01,25,14.80
2016,08,15,01,26,14.80
2016,08,15,01,27,14.70
2016,08,15,01,28,14.70
2016,08,15,01,29,14.70
2016,08,15,01,30,14.70
2016,08,15,01,31,14.70
2016,08,15,01,32,14.70
2016,08,15,01,33,14.70
2016,08,15,01,34,14.70
2016,08,15,01,35,14.70
2016,08,15,01,36,14.70
2016,08,15,01,37,14.70
2016,08,15,01,38,14.70
2016,08,15,01,39,14.70
2016,08,15,01,40,14.80
2016,08,15,01,41,14.80
2016,08,15,01,42,14.80
2016,08,15,01,43,14.80
2016,08,15,01,44,14.80
2016,08,15,01,45,14.80
2016,08,15,01,46,14.80
2016,08,15,01,47,14.80
2016,08,15,01,48,14.70
2016,08,15,01,49,14.70
2016,08,15,01,50,14.70
2016,08,15,01,51,14.70
2016,08,15,01,52,14.60
2016,08,15,01,53,14.60
2016,08,15,01,54,14.60
2016,08,15,01,55,14.60
2016,08,15,01,56,14.50
2016,08,15,01,57,14.50
2016,08,15,01,58,14.50
2016,08,15,01,59,14.50
2016,08,15,02,00,14.50
2016,08,15,02,01,14.40
2016,08,15,02,02,14.40
2016,08,15,02,03,14.40
2016,08,15,02,04,14.40
2016,08,15,02,05,14.40
2016,08,15,02,06,14.30
2016,08,15,02,07,14.30
2016,08,15,02,08,14.30
2016,08,15,02,09,14.30
2016,08,15,02,10,14.30
2016,08,15,02,11,14.30
2016,08,15,02,12,14.30
2016,08,15,02,13,14.30
2016,08,15,02,14,14.30
2016,08,15,02,15,14.30
2016,08,15,02,16,14.30
2016,08,15,02,17,14.30
2016,08,15,02,18,14.30
2016,08,15,02,19,14.30
2016,08,15,02,20,14.30
2016,08,15,02,21,14.30
2016,08,15,02,22,14.20
2016,08,15,02,23,14.30
2016,08,15,02,24,14.20
2016,08,15,02,25,14.20
2016,08,15,02,26,14.30
2016,08,15,02,27,14.30
2016,08,15,02,28,14.30
2016,08,15,02,29,14.30
2016,08,15,02,30,14.30
2016,08,15,02,31,14.30
2016,08,15,02,32,14.30
2016,08,15,02,33,14.30
2016,08,15,02,34,14.30
2016,08,15,02,35,14.30
2016,08,15,02,36,14.30
2016,08,15,02,37,14.30
2016,08,15,02,38,14.30
2016,08,15,02,39,14.30
2016,08,15,02,40,14.30
2016,08,15,02,41,14.20
2016,08,15,02,42,14.20
2016,08,15,02,43,14.20
2016,08,15,02,44,14.20
2016,08,15,02,45,14.20
2016,08,15,02,46,14.20
2016,08,15,02,47,14.20
2016,08,15,02,48,14.20
2016,08,15,02,49,14.20
2016,08,15,02,50,14.10
2016,08,15,02,51,14.10
2016,08,15,02,52,14.10
2016,08,15,02,53,14.10
2016,08,15,02,54,14.20
2016,08,15,02,55,14.20
2016,08,15,02,56,14.20
2016,08,15,02,57,14.20
2016,08,15,02,58,14.20
2016,08,15,02,59,14.20
2016,08,15,03,00,14.30
2016,08,15,03,01,14.30
2016,08,15,03,02,14.30
2016,08,15,03,03,14.30
2016,08,15,03,04,14.30
2016,08,15,03,05,14.30
2016,08,15,03,06,14.30
2016,08,15,03,07,14.30
2016,08,15,03,08,14.30
2016,08,15,03,09,14.30
2016,08,15,03,10,14.30
2016,08,15,03,11,14.30
2016,08,15,03,12,14.30
2016,08,15,03,13,14.30
2016,08,15,03,14,14.30
2016,08,15,03,15,14.30
2016,08,15,03,16,14.30
2016,08,15,03,17,14.30
2016,08,15,03,18,14.30
2016,08,15,03,19,14.30
2016,08,15,03,20,14.30
2016,08,15,03,21,14.30
2016,08,15,03,22,14.30
2016,08,15,03,23,14.30
2016,08,15,03,24,14.30
2016,08,15,03,25,14.30
2016,08,15,03,26,14.30
2016,08,15,03,27,14.30
2016,08,15,03,28,14.40
2016,08,15,03,29,14.40
2016,08,15,03,30,14.40
2016,08,15,03,31,14.40
2016,08,15,03,32,14.40
2016,08,15,03,33,14.40
2016,08,15,03,34,14.40
2016,08,15,03,35,14.40
2016,08,15,03,36,14.40
2016,08,15,03,37,14.40
2016,08,15,03,38,14.40
2016,08,15,03,39,14.40
2016,08,15,03,40,14.40
2016,08,15,03,41,14.50
2016,08,15,03,42,14.50
2016,08,15,03,43,14.60
2016,08,15,03,44,14.60
2016,08,15,03,45,14.60
2016,08,15,03,46,14.60
2016,08,15,03,47,14.60
2016,08,15,03,48,14.60
2016,08,15,03,49,14.60
2016,08,15,03,50,14.60
2016,08,15,03,51,14.60
2016,08,15,03,52,14.70
2016,08,15,03,53,14.70
2016,08,15,03,54,14.70
2016,08,15,03,55,14.70
2016,08,15,03,56,14.70
2016,08,15,03,57,14.80
2016,08,15,03,58,14.80
2016,08,15,03,59,14.80
2016,08,15,04,00,14.80
2016,08,15,04,01,14.80
2016,08,15,04,02,14.80
2016,08,15,04,03,14.80
2016,08,15,04,04,14.80
2016,08,15,04,05,14.80
2016,08,15,04,06,14.90
2016,08,15,04,07,14.90
2016,08,15,04,08,14.90
2016,08,15,04,09,14.90
2016,08,15,04,10,14.90
2016,08,15,04,11,14.90
2016,08,15,04,12,14.90
2016,08,15,04,13,14.90
2016,08,15,04,14,14.90
2016,08,15,04,15,14.90
2016,08,15,04,16,14.90
2016,08,15,04,17,14.90
2016,08,15,04,18,14.90
2016,08,15,04,19,14.90
2016,08,15,04,20,14.90
2016,08,15,04,21,14.90
2016,08,15,04,22,14.90
2016,08,15,04,23,14.90
2016,08,15,04,24,14.90
2016,08,15,04,25,14.90
2016,08,15,04,26,14.90
2016,08,15,04,27,14.90
2016,08,15,04,28,14.90
2016,08,15,04,29,14.90
2016,08,15,04,30,14.90
2016,08,15,04,31,14.90
2016,08,15,04,32,14.90
2016,08,15,04,33,14.90
2016,08,15,04,34,14.90
2016,08,15,04,35,14.90
2016,08,15,04,36,15.00
2016,08,15,04,37,14.90
2016,08,15,04,38,14.90
2016,08,15,04,39,14.90
2016,08,15,04,40,14.90
2016,08,15,04,41,14.90
2016,08,15,04,42,14.90
2016,08,15,04,43,14.90
2016,08,15,04,44,14.90
2016,08,15,04,45,14.90
2016,08,15,04,46,14.90
2016,08,15,04,47,14.90
2016,08,15,04,48,14.90
2016,08,15,04,49,14.90
2016,08,15,04,50,14.80
2016,08,15,04,51,14.80
2016,08,15,04,52,14.80
2016,08,15,04,53,14.80
2016,08,15,04,54,14.80
2016,08,15,04,55,14.80
2016,08,15,04,56,14.80
2016,08,15,04,57,14.80
2016,08,15,04,58,14.80
2016,08,15,04,59,14.80
2016,08,15,05,00,14.80
2016,08,15,05,01,14.80
2016,08,15,05,02,14.80
2016,08,15,05,03,14.80
2016,08,15,05,04,14.80
2016,08,15,05,05,14.80
2016,08,15,05,06,14.80
2016,08,15,05,07,14.80
2016,08,15,05,08,14.80
2016,08,15,05,09,14.80
2016,08,15,05,10,14.80
2016,08,15,05,11,14.80
2016,08,15,05,12,14.80
2016,08,15,05,13,14.80
2016,08,15,05,14,14.70
2016,08,15,05,15,14.70
2016,08,15,05,16,14.70
2016,08,15,05,17,14.70
2016,08,15,05,18,14.70
2016,08,15,05,19,14.70
2016,08,15,05,20,14.70
2016,08,15,05,21,14.70
2016,08,15,05,22,14.70
2016,08,15,05,23,14.70
2016,08,15,05,24,14.70
2016,08,15,05,25,14.70
2016,08,15,05,26,14.70
2016,08,15,05,27,14.60
2016,08,15,05,28,14.60
2016,08,15,05,29,14.60
2016,08,15,05,30,14.60
2016,08,15,05,31,14.60
2016,08,15,05,32,14.60
2016,08,15,05,33,14.60
2016,08,15,05,34,14.60
2016,08,15,05,35,14.60
2016,08,15,05,36,14.60
2016,08,15,05,37,14.60
2016,08,15,05,38,14.60
2016,08,15,05,39,14.60
2016,08,15,05,40,14.50
2016,08,15,05,41,14.50
2016,08,15,05,42,14.50
2016,08,15,05,43,14.50
2016,08,15,05,44,14.50
2016,08,15,05,45,14.50
2016,08,15,05,46,14.50
2016,08,15,05,47,14.40
2016,08,15,05,48,14.40
2016,08,15,05,49,14.40
2016,08,15,05,50,14.40
2016,08,15,05,51,14.40
2016,08,15,05,52,14.40
2016,08,15,05,53,14.40
2016,08,15,05,54,14.40
2016,08,15,05,55,14.40
2016,08,15,05,56,14.30
2016,08,15,05,57,14.30
2016,08,15,05,58,14.30
2016,08,15,05,59,14.30
2016,08,15,06,00,14.30
2016,08,15,06,01,14.30
2016,08,15,06,02,14.30
2016,08,15,06,03,14.30
2016,08,15,06,04,14.30
2016,08,15,06,05,14.20
2016,08,15,06,06,14.20
2016,08,15,06,07,14.20
2016,08,15,06,08,14.20
2016,08,15,06,09,14.20
2016,08,15,06,10,14.10
2016,08,15,06,11,14.10
2016,08,15,06,12,14.10
2016,08,15,06,13,14.10
2016,08,15,06,14,14.10
2016,08,15,06,15,14.10
2016,08,15,06,16,14.10
2016,08,15,06,17,14.10
2016,08,15,06,18,14.10
2016,08,15,06,19,14.10
2016,08,15,06,20,14.00
2016,08,15,06,21,14.10
2016,08,15,06,22,14.00
2016,08,15,06,23,14.00
2016,08,15,06,24,14.00
2016,08,15,06,25,14.00
2016,08,15,06,26,14.00
2016,08,15,06,27,14.00
2016,08,15,06,28,13.90
2016,08,15,06,29,13.90
2016,08,15,06,30,13.90
2016,08,15,06,31,13.90
2016,08,15,06,32,13.90
2016,08,15,06,33,13.80
2016,08,15,06,34,13.80
2016,08,15,06,35,13.80
2016,08,15,06,36,13.80
2016,08,15,06,37,13.80
2016,08,15,06,38,13.80
2016,08,15,06,39,13.80
2016,08,15,06,40,13.80
2016,08,15,06,41,13.80
2016,08,15,06,42,13.80
2016,08,15,06,43,13.70
2016,08,15,06,44,13.70
2016,08,15,06,45,13.70
2016,08,15,06,46,13.70
2016,08,15,06,47,13.70
2016,08,15,06,48,13.70
2016,08,15,06,49,13.70
2016,08,15,06,50,13.70
2016,08,15,06,51,13.70
2016,08,15,06,52,13.80
2016,08,15,06,53,13.70
2016,08,15,06,54,13.80
2016,08,15,06,55,13.80
2016,08,15,06,56,13.80
2016,08,15,06,57,13.80
2016,08,15,06,58,13.80
2016,08,15,06,59,13.80
2016,08,15,07,00,13.80
2016,08,15,07,01,13.80
2016,08,15,07,02,13.80
2016,08,15,07,03,13.80
2016,08,15,07,04,13.80
2016,08,15,07,05,13.70
2016,08,15,07,06,13.70
2016,08,15,07,07,13.70
2016,08,15,07,08,13.70
2016,08,15,07,09,13.70
2016,08,15,07,10,13.70
2016,08,15,07,11,13.70
2016,08,15,07,12,13.70
2016,08,15,07,13,13.70
2016,08,15,07,14,13.70
2016,08,15,07,15,13.70
2016,08,15,07,16,13.70
2016,08,15,07,17,13.70
2016,08,15,07,18,13.70
2016,08,15,07,19,13.70
2016,08,15,07,20,13.70
2016,08,15,07,21,13.70
2016,08,15,07,22,13.70
2016,08,15,07,23,13.70
2016,08,15,07,24,13.70
2016,08,15,07,25,13.70
2016,08,15,07,26,13.70
2016,08,15,07,27,13.70
2016,08,15,07,28,13.70
2016,08,15,07,29,13.70
2016,08,15,07,30,13.70
2016,08,15,07,31,13.70
2016,08,15,07,32,13.70
2016,08,15,07,33,13.70
2016,08,15,07,34,13.70
2016,08,15,07,35,13.70
2016,08,15,07,36,13.70
2016,08,15,07,37,13.70
2016,08,15,07,38,13.70
2016,08,15,07,39,13.70
2016,08,15,07,40,13.70
2016,08,15,07,41,13.70
2016,08,15,07,42,13.70
2016,08,15,07,43,13.70
2016,08,15,07,44,13.70
2016,08,15,07,45,13.70
2016,08,15,07,46,13.70
2016,08,15,07,47,13.70
2016,08,15,07,48,13.70
2016,08,15,07,49,13.70
2016,08,15,07,50,13.70
2016,08,15,07,51,13.70
2016,08,15,07,52,13.70
2016,08,15,07,53,13.70
2016,08,15,07,54,13.70
2016,08,15,07,55,13.70
2016,08,15,07,56,13.70
2016,08,15,07,57,13.70
2016,08,15,07,58,13.70
2016,08,15,07,59,13.70
2016,08,15,08,00,13.70
2016,08,15,08,01,13.70
2016,08,15,08,02,13.70
2016,08,15,08,03,13.70
2016,08,15,08,04,13.70
2016,08,15,08,05,13.70
2016,08,15,08,06,13.70
2016,08,15,08,07,13.70
2016,08,15,08,08,13.70
2016,08,15,08,09,13.70
2016,08,15,08,10,13.70
2016,08,15,08,11,14.00
2016,08,15,08,12,14.20
2016,08,15,08,13,14.50
2016,08,15,08,14,14.70
2016,08,15,08,15,14.80
2016,08,15,08,16,14.80
2016,08,15,08,17,14.90
2016,08,15,08,18,15.00
2016,08,15,08,19,15.10
2016,08,15,08,20,15.20
2016,08,15,08,21,15.30
2016,08,15,08,22,15.30
2016,08,15,08,23,15.30
2016,08,15,08,24,15.40
2016,08,15,08,25,15.40
2016,08,15,08,26,15.40
2016,08,15,08,27,15.40
2016,08,15,08,28,15.40
2016,08,15,08,29,15.40
2016,08,15,08,30,15.40
2016,08,15,08,31,15.50
2016,08,15,08,32,15.50
2016,08,15,08,33,15.60
2016,08,15,08,34,15.60
2016,08,15,08,35,15.60
2016,08,15,08,36,15.70
2016,08,15,08,37,15.80
2016,08,15,08,38,15.90
2016,08,15,08,39,16.00
2016,08,15,08,40,16.10
2016,08,15,08,41,16.20
2016,08,15,08,42,16.30
2016,08,15,08,43,16.30
2016,08,15,08,44,16.20
2016,08,15,08,45,16.20
2016,08,15,08,46,16.20
2016,08,15,08,47,16.30
2016,08,15,08,48,16.40
2016,08,15,08,49,16.40
2016,08,15,08,50,16.50
2016,08,15,08,51,16.60
2016,08,15,08,52,16.60
2016,08,15,08,53,16.60
2016,08,15,08,54,16.70
2016,08,15,08,55,16.70
2016,08,15,08,56,16.70
2016,08,15,08,57,16.70
2016,08,15,08,58,16.70
2016,08,15,08,59,16.60
2016,08,15,09,00,16.60
2016,08,15,09,01,16.60
2016,08,15,09,02,16.60
2016,08,15,09,03,16.60
2016,08,15,09,04,16.60
2016,08,15,09,05,16.60
2016,08,15,09,06,16.60
2016,08,15,09,07,16.60
2016,08,15,09,08,16.50
2016,08,15,09,09,16.50
2016,08,15,09,10,16.40
2016,08,15,09,11,16.40
2016,08,15,09,12,16.40
2016,08,15,09,13,16.40
2016,08,15,09,14,16.30
2016,08,15,09,15,16.30
2016,08,15,09,16,16.30
2016,08,15,09,17,16.30
2016,08,15,09,18,16.30
2016,08,15,09,19,16.30
2016,08,15,09,20,16.40
2016,08,15,09,21,16.40
2016,08,15,09,22,16.40
2016,08,15,09,23,16.40
2016,08,15,09,24,16.40
2016,08,15,09,25,16.40
2016,08,15,09,26,16.40
2016,08,15,09,27,16.40
2016,08,15,09,28,16.40
2016,08,15,09,29,16.40
2016,08,15,09,30,16.50
2016,08,15,09,31,16.50
2016,08,15,09,32,16.50
2016,08,15,09,33,16.50
2016,08,15,09,34,16.40
2016,08,15,09,35,16.40
2016,08,15,09,36,16.40
2016,08,15,09,37,16.40
2016,08,15,09,38,16.40
2016,08,15,09,39,16.40
2016,08,15,09,40,16.30
2016,08,15,09,41,16.30
2016,08,15,09,42,16.30
2016,08,15,09,43,16.30
2016,08,15,09,44,16.30
2016,08,15,09,45,16.30
2016,08,15,09,46,16.30
2016,08,15,09,47,16.30
2016,08,15,09,48,16.40
2016,08,15,09,49,16.40
2016,08,15,09,50,16.40
2016,08,15,09,51,16.40
2016,08,15,09,52,16.40
2016,08,15,09,53,16.40
2016,08,15,09,54,16.40
2016,08,15,09,55,16.40
2016,08,15,09,56,16.50
2016,08,15,09,57,16.50
2016,08,15,09,58,16.50
2016,08,15,09,59,16.60
2016,08,15,10,00,16.60
2016,08,15,10,01,16.70
2016,08,15,10,02,16.70
2016,08,15,10,03,16.80
2016,08,15,10,04,16.80
2016,08,15,10,05,16.90
2016,08,15,10,06,17.00
2016,08,15,10,07,17.10
2016,08,15,10,08,17.20
2016,08,15,10,09,17.30
2016,08,15,10,10,17.40
2016,08,15,10,11,17.50
2016,08,15,10,12,17.60
2016,08,15,10,13,17.70
2016,08,15,10,14,17.80
2016,08,15,10,15,17.90
2016,08,15,10,16,18.00
2016,08,15,10,17,18.10
2016,08,15,10,18,18.20
2016,08,15,10,19,18.30
2016,08,15,10,20,18.30
2016,08,15,10,21,18.40
2016,08,15,10,22,18.50
2016,08,15,10,23,18.60
2016,08,15,10,24,18.70
2016,08,15,10,25,18.70
2016,08,15,10,26,18.80
2016,08,15,10,27,18.80
2016,08,15,10,28,18.80
2016,08,15,10,29,18.80
2016,08,15,10,30,18.80
2016,08,15,10,31,18.90
2016,08,15,10,32,18.90
2016,08,15,10,33,18.90
2016,08,15,10,34,19.00
2016,08,15,10,35,19.10
2016,08,15,10,36,19.10
2016,08,15,10,37,19.10
2016,08,15,10,38,19.10
2016,08,15,10,39,19.20
2016,08,15,10,40,19.30
2016,08,15,10,41,19.30
2016,08,15,10,42,19.40
2016,08,15,10,43,19.40
2016,08,15,10,44,19.40
2016,08,15,10,45,19.50
2016,08,15,10,46,19.50
2016,08,15,10,47,19.50
2016,08,15,10,48,19.60
2016,08,15,10,49,19.70
2016,08,15,10,50,19.70
2016,08,15,10,51,19.80
2016,08,15,10,52,19.80
2016,08,15,10,53,19.80
2016,08,15,10,54,19.90
2016,08,15,10,55,19.90
2016,08,15,10,56,19.90
2016,08,15,10,57,20.00
2016,08,15,10,58,20.00
2016,08,15,10,59,20.10
2016,08,15,11,00,20.20
2016,08,15,11,01,20.20
2016,08,15,11,02,20.30
2016,08,15,11,03,20.40
2016,08,15,11,04,20.40
2016,08,15,11,05,20.50
2016,08,15,11,06,20.60
2016,08,15,11,07,20.60
2016,08,15,11,08,20.70
2016,08,15,11,09,20.80
2016,08,15,11,10,20.90
2016,08,15,11,11,21.00
2016,08,15,11,12,21.10
2016,08,15,11,13,21.20
2016,08,15,11,14,21.30
2016,08,15,11,15,21.40
2016,08,15,11,16,21.50
2016,08,15,11,17,21.70
2016,08,15,11,18,21.70
2016,08,15,11,19,21.80
2016,08,15,11,20,21.80
2016,08,15,11,21,21.90
2016,08,15,11,22,21.90
2016,08,15,11,23,22.00
2016,08,15,11,24,22.10
2016,08,15,11,25,22.20
2016,08,15,11,26,22.20
2016,08,15,11,27,22.30
2016,08,15,11,28,22.30
2016,08,15,11,29,22.40
2016,08,15,11,30,22.40
2016,08,15,11,31,22.40
2016,08,15,11,32,22.40
2016,08,15,11,33,22.40
2016,08,15,11,34,22.40
2016,08,15,11,35,22.40
2016,08,15,11,36,22.40
2016,08,15,11,37,22.40
2016,08,15,11,38,22.40
2016,08,15,11,39,22.40
2016,08,15,11,40,22.40
2016,08,15,11,41,22.40
2016,08,15,11,42,22.50
2016,08,15,11,43,22.60
2016,08,15,11,44,22.70
2016,08,15,11,45,22.70
2016,08,15,11,46,22.80
2016,08,15,11,47,22.90
2016,08,15,11,48,23.00
2016,08,15,11,49,23.10
2016,08,15,11,50,23.20
2016,08,15,11,51,23.20
2016,08,15,11,52,23.20
2016,08,15,11,53,23.10
2016,08,15,11,54,23.00
2016,08,15,11,55,22.90
2016,08,15,11,56,22.80
2016,08,15,11,57,22.60
2016,08,15,11,58,22.60
2016,08,15,11,59,22.50
2016,08,15,12,00,22.40
2016,08,15,12,01,22.40
2016,08,15,12,02,22.40
2016,08,15,12,03,22.30
2016,08,15,12,04,22.30
2016,08,15,12,05,22.10
2016,08,15,12,06,22.00
2016,08,15,12,07,21.90
2016,08,15,12,08,21.70
2016,08,15,12,09,21.60
2016,08,15,12,10,21.50
2016,08,15,12,11,21.50
2016,08,15,12,12,21.40
2016,08,15,12,13,21.40
2016,08,15,12,14,21.40
2016,08,15,12,15,21.50
2016,08,15,12,16,21.60
2016,08,15,12,17,21.70
2016,08,15,12,18,21.80
2016,08,15,12,19,21.80
2016,08,15,12,20,22.00
2016,08,15,12,21,22.10
2016,08,15,12,22,22.30
2016,08,15,12,23,22.40
2016,08,15,12,24,22.60
2016,08,15,12,25,22.70
2016,08,15,12,26,22.80
2016,08,15,12,27,22.90
2016,08,15,12,28,22.90
2016,08,15,12,29,22.90
2016,08,15,12,30,22.90
2016,08,15,12,31,22.80
2016,08,15,12,32,22.90
2016,08,15,12,33,22.90
2016,08,15,12,34,22.90
2016,08,15,12,35,22.90
2016,08,15,12,36,23.00
2016,08,15,12,37,23.00
2016,08,15,12,38,23.00
2016,08,15,12,39,23.00
2016,08,15,12,40,22.90
2016,08,15,12,41,22.80
2016,08,15,12,42,22.70
2016,08,15,12,43,22.60
2016,08,15,12,44,22.60
2016,08,15,12,45,22.50
2016,08,15,12,46,22.50
2016,08,15,12,47,22.50
2016,08,15,12,48,22.40
2016,08,15,12,49,22.40
2016,08,15,12,50,22.30
2016,08,15,12,51,22.30
2016,08,15,12,52,22.20
2016,08,15,12,53,22.10
2016,08,15,12,54,22.10
2016,08,15,12,55,22.10
2016,08,15,12,56,22.10
2016,08,15,12,57,22.10
2016,08,15,12,58,22.00
2016,08,15,12,59,22.00
2016,08,15,13,00,22.00
2016,08,15,13,01,22.00
2016,08,15,13,02,22.00
2016,08,15,13,03,22.00
2016,08,15,13,04,21.90
2016,08,15,13,05,21.90
2016,08,15,13,06,22.00
2016,08,15,13,07,21.90
2016,08,15,13,08,21.90
2016,08,15,13,09,21.80
2016,08,15,13,10,21.80
2016,08,15,13,11,21.80
2016,08,15,13,12,21.90
2016,08,15,13,13,21.90
2016,08,15,13,14,22.00
2016,08,15,13,15,22.00
2016,08,15,13,16,22.10
2016,08,15,13,17,22.10
2016,08,15,13,18,22.20
2016,08,15,13,19,22.30
2016,08,15,13,20,22.30
2016,08,15,13,21,22.40
2016,08,15,13,22,22.50
2016,08,15,13,23,22.50
2016,08,15,13,24,22.60
2016,08,15,13,25,22.60
2016,08,15,13,26,22.60
2016,08,15,13,27,22.50
2016,08,15,13,28,22.50
2016,08,15,13,29,22.50
2016,08,15,13,30,22.40
2016,08,15,13,31,22.40
2016,08,15,13,32,22.40
2016,08,15,13,33,22.40
2016,08,15,13,34,22.50
2016,08,15,13,35,22.50
2016,08,15,13,36,22.60
2016,08,15,13,37,22.60
2016,08,15,13,38,22.60
2016,08,15,13,39,22.60
2016,08,15,13,40,22.60
2016,08,15,13,41,22.60
2016,08,15,13,42,22.60
2016,08,15,13,43,22.60
2016,08,15,13,44,22.60
2016,08,15,13,45,22.60
2016,08,15,13,46,22.70
2016,08,15,13,47,22.70
2016,08,15,13,48,22.70
2016,08,15,13,49,22.80
2016,08,15,13,50,22.80
2016,08,15,13,51,22.80
2016,08,15,13,52,22.80
2016,08,15,13,53,22.80
2016,08,15,13,54,22.70
2016,08,15,13,55,22.70
2016,08,15,13,56,22.70
2016,08,15,13,57,22.70
2016,08,15,13,58,22.60
2016,08,15,13,59,22.60
2016,08,15,14,00,22.50
2016,08,15,14,01,22.50
2016,08,15,14,02,22.60
2016,08,15,14,03,22.60
2016,08,15,14,04,22.60
2016,08,15,14,05,22.60
2016,08,15,14,06,22.60
2016,08,15,14,07,22.70
2016,08,15,14,08,22.70
2016,08,15,14,09,22.80
2016,08,15,14,10,22.80
2016,08,15,14,11,22.80
2016,08,15,14,12,22.80
2016,08,15,14,13,22.80
2016,08,15,14,14,22.80
2016,08,15,14,15,22.70
2016,08,15,14,16,22.70
2016,08,15,14,17,22.70
2016,08,15,14,18,22.80
2016,08,15,14,19,22.80
2016,08,15,14,20,22.90
2016,08,15,14,21,22.90
2016,08,15,14,22,23.00
2016,08,15,14,23,23.10
2016,08,15,14,24,23.10
2016,08,15,14,25,23.10
2016,08,15,14,26,23.00
2016,08,15,14,27,23.00
2016,08,15,14,28,23.00
2016,08,15,14,29,23.00
2016,08,15,14,30,23.10
2016,08,15,14,31,23.10
2016,08,15,14,32,23.20
2016,08,15,14,33,23.30
2016,08,15,14,34,23.40
2016,08,15,14,35,23.50
2016,08,15,14,36,23.60
2016,08,15,14,37,23.70
2016,08,15,14,38,23.70
2016,08,15,14,39,23.80
2016,08,15,14,40,23.80
2016,08,15,14,41,23.90
2016,08,15,14,42,23.90
2016,08,15,14,43,23.90
2016,08,15,14,44,24.00
2016,08,15,14,45,24.10
2016,08,15,14,46,24.20
2016,08,15,14,47,24.20
2016,08,15,14,48,24.30
2016,08,15,14,49,24.30
2016,08,15,14,50,24.30
2016,08,15,14,51,24.30
2016,08,15,14,52,24.30
2016,08,15,14,53,24.30
2016,08,15,14,54,24.20
2016,08,15,14,55,24.20
2016,08,15,14,56,24.20
2016,08,15,14,57,24.20
2016,08,15,14,58,24.10
2016,08,15,14,59,24.10
2016,08,15,15,00,24.10
2016,08,15,15,01,24.10
2016,08,15,15,02,24.00
2016,08,15,15,03,24.00
2016,08,15,15,04,23.90
2016,08,15,15,05,23.80
2016,08,15,15,06,23.70
2016,08,15,15,07,23.60
2016,08,15,15,08,23.50
2016,08,15,15,09,23.50
2016,08,15,15,10,23.40
2016,08,15,15,11,23.40
2016,08,15,15,12,23.50
2016,08,15,15,13,23.50
2016,08,15,15,14,23.70
2016,08,15,15,15,23.80
2016,08,15,15,16,24.00
2016,08,15,15,17,24.10
2016,08,15,15,18,24.00
2016,08,15,15,19,23.90
2016,08,15,15,20,23.90
2016,08,15,15,21,23.80
2016,08,15,15,22,23.80
2016,08,15,15,23,23.80
2016,08,15,15,24,23.70
2016,08,15,15,25,23.60
2016,08,15,15,26,23.60
2016,08,15,15,27,23.60
2016,08,15,15,28,23.50
2016,08,15,15,29,23.50
2016,08,15,15,30,23.40
2016,08,15,15,31,23.30
2016,08,15,15,32,23.20
2016,08,15,15,33,23.10
2016,08,15,15,34,22.90
2016,08,15,15,35,22.80
2016,08,15,15,36,22.70
2016,08,15,15,37,22.50
2016,08,15,15,38,22.30
2016,08,15,15,39,22.30
2016,08,15,15,40,22.20
2016,08,15,15,41,22.20
2016,08,15,15,42,22.20
2016,08,15,15,43,22.20
2016,08,15,15,44,22.20
2016,08,15,15,45,22.20
2016,08,15,15,46,22.20
2016,08,15,15,47,22.10
2016,08,15,15,48,22.00
2016,08,15,15,49,21.90
2016,08,15,15,50,21.90
2016,08,15,15,51,21.80
2016,08,15,15,52,21.80
2016,08,15,15,53,21.80
2016,08,15,15,54,21.80
2016,08,15,15,55,21.80
2016,08,15,15,56,21.80
2016,08,15,15,57,21.80
2016,08,15,15,58,21.70
2016,08,15,15,59,21.70
2016,08,15,16,00,21.70
2016,08,15,16,01,21.70
2016,08,15,16,02,21.70
2016,08,15,16,03,21.70
2016,08,15,16,04,21.80
2016,08,15,16,05,21.90
2016,08,15,16,06,21.90
2016,08,15,16,07,21.90
2016,08,15,16,08,21.90
2016,08,15,16,09,22.00
2016,08,15,16,10,22.10
2016,08,15,16,11,22.10
2016,08,15,16,12,22.10
2016,08,15,16,13,22.00
2016,08,15,16,14,22.00
2016,08,15,16,15,21.90
2016,08,15,16,16,22.00
2016,08,15,16,17,22.00
2016,08,15,16,18,22.00
2016,08,15,16,19,22.00
2016,08,15,16,20,21.90
2016,08,15,16,21,21.90
2016,08,15,16,22,21.90
2016,08,15,16,23,21.90
2016,08,15,16,24,21.90
2016,08,15,16,25,21.90
2016,08,15,16,26,22.00
2016,08,15,16,27,22.00
2016,08,15,16,28,22.10
2016,08,15,16,29,22.20
2016,08,15,16,30,22.20
2016,08,15,16,31,22.20
2016,08,15,16,32,22.30
2016,08,15,16,33,22.30
2016,08,15,16,34,22.40
2016,08,15,16,35,22.50
2016,08,15,16,36,22.60
2016,08,15,16,37,22.70
2016,08,15,16,38,22.90
2016,08,15,16,39,23.00
2016,08,15,16,40,23.10
2016,08,15,16,41,23.20
2016,08,15,16,42,23.30
2016,08,15,16,43,23.30
2016,08,15,16,44,23.30
2016,08,15,16,45,23.40
2016,08,15,16,46,23.40
2016,08,15,16,47,23.40
2016,08,15,16,48,23.40
2016,08,15,16,49,23.40
2016,08,15,16,50,23.40
2016,08,15,16,51,23.40
2016,08,15,16,52,23.40
2016,08,15,16,53,23.50
2016,08,15,16,54,23.50
2016,08,15,16,55,23.40
2016,08,15,16,56,23.40
2016,08,15,16,57,23.30
2016,08,15,16,58,23.20
2016,08,15,16,59,23.20
2016,08,15,17,00,23.10
2016,08,15,17,01,22.90
2016,08,15,17,02,22.80
2016,08,15,17,03,22.80
2016,08,15,17,04,22.80
2016,08,15,17,05,22.80
2016,08,15,17,06,22.80
2016,08,15,17,07,22.70
2016,08,15,17,08,22.70
2016,08,15,17,09,22.80
2016,08,15,17,10,22.80
2016,08,15,17,11,22.80
2016,08,15,17,12,22.90
2016,08,15,17,13,22.90
2016,08,15,17,14,23.00
2016,08,15,17,15,23.00
2016,08,15,17,16,23.00
2016,08,15,17,17,23.10
2016,08,15,17,18,23.10
2016,08,15,17,19,23.10